SCP
0 0 0 0 0 0 0 0 0 0 0 0 0 0 0 0 0 0 0 0 0 0 0 0 0 0 0 0 0 0 0 0 -0 -0 0 0 0 0 0 0 0 0 0 0
0 0 0 0 0 0 0 0 0 0 -0 0 0 0 0 0 0 0 0 0 0 0 0 0 0 0 0 0 0 0 0 0 0 -0 -0 -0 0 0 0 0 0 0 0 0
0 0 0 0 0 0 0 0 0 0 0 0 0 0 0 -0 -0 0 0 0 0 0 0 0 0 -0 -0 -0 -0 0 0 0 0 0 -0 -0 0 0 0 0 0 0 0 0
0 0 0 0 0 0 0 0 0 0 0 0 0 0 -0 -0 -0 0 0 0 0 0 0 0 0 0 0 -0 -0 -0 0 0 0 0 0 0 0 0 0 0 0 0 0 0
0 0 0 0 0 0 0 0 0 0 0 0 0 0 0 0 0 0 0 0 0 0 0 0 0 0 0 0 0 0 0 0 -0 -0 -0 0 0 0 0 0 0 0 0 0
0 0 0 0 0 0 0 0 0 0 0 0 0 0 0 0 0 0 0 0 0 0 0 0 0 0 0 0 0 -0 0 0 0 -0 -0 0 0 -0 -0 0 0 0 0 0
0 0 0 0 0 0 0 0 0 0 0 0 0 0 0 0 0 0 0 0 0 0 0 0 0 0 0 0 -0 -0 -0 -0 -0 0 0 0 0 0 -0 -0 -0 -0 0 0
0 0 0 0 0 0 0 0 0 0 0 0 0 0 0 0 0 0 0 0 0 0 0 0 0 0 0 -0 0 0 0 0 -0 -0 -0 -0 -0 -0 -0 0 0 0 0 0
0 0 0 0 0 0 0 0 0 0 0 0 0 0 0 0 0 0 0 0 0 0 0 0 0 0 0 0 0 0 0 0 0 0 0 -0 -0 -0 -0 -0 0 0 0 0
0 0 0 0 0 0 0 0 0 0 0 0 0 0 0 0 0 0 0 0 0 0 0 0 0 0 0 0 0 0 0 0 0 0 0 0 0 0 0 0 0 0 0 0
0 0 0 0 0 0 0 0 0 0 0 0 0 0 0 0 0 0 0 0 0 0 0 0 0 0 0 0 0 0 0 0 0 0 0 0 0 0 0 0 0 0 0 0
0 0 0 0 0 0 0 0 0 0 0 0 0 0 0 0 0 0 0 0 0 0 0 0 0 0 0 0 0 0 0 0 0 0 0 0 0 0 0 0 0 0 0 0
0 0 0 0 0 0 0 0 0 0 0 0 0 0 0 0 0 0 0 0 0 0 0 0 0 0 0 0 0 0 0 0 0 0 0 0 0 0 0 0 0 0 0 0
0 0 0 0 0 0 0 0 0 0 0 0 0 0 0 0 0 0 0 0 0 0 0 0 0 0 0 0 0 0 0 0 0 0 0 0 0 0 0 0 0 0 0 0
0 0 0 0 0 0 0 0 0 0 0 0 0 0 0 0 0 0 0 0 0 0 0 0 0 0 0 0 0 0 0 0 0 0 0 0 0 0 0 0 0 0 0 0
0 0 0 0 0 0 0 0 0 0 0 0 0 0 0 0 0 0 0 0 0 0 0 0 0 0 0 0 0 0 0 0 0 0 0 0 0 0 0 0 0 0 0 0
0 0 0 0 0 0 0 0 0 0 0 0 0 0 0 0 0 0 0 0 0 0 0 0 0 0 0 0 0 0 0 0 0 0 0 0 0 0 0 0 0 0 0 0
0 0 0 0 0 0 0 0 0 0 0 0 0 0 0 0 0 0 0 0 0 0 0 0 0 0 0 0 0 0 0 0 0 0 0 0 0 0 0 0 0 0 0 0
0 0 0 0 0 0 0 0 0 0 0 0 0 0 0 0 0 0 0 0 0 0 0 0 0 0 0 0 0 0 0 0 0 0 0 0 0 0 0 0 0 0 0 0
0 0 0 0 0 0 0 0 0 0 0 0 0 0 0 0 0 0 0 0 0 0 0 0 0 0 0 0 0 0 0 0 0 0 0 0 0 0 0 0 0 0 0 0
0 0 0 0 0 0 0 0 0 0 0 0 0 0 0 0 0 0 0 0 0 0 0 0 0 0 0 0 0 0 0 0 0 0 0 0 0 0 0 0 0 0 0 0
0 0 0 0 0 0 0 0 0 0 0 0 0 0 0 0 0 0 0 0 0 0 0 0 0 0 0 0 0 0 0 0 0 0 0 0 0 0 0 0 0 0 0 0
0 0 0 0 0 0 0 0 0 0 0 0 0 0 0 0 0 0 0 0 0 0 0 0 0 0 0 0 0 0 0 0 0 0 0 0 0 0 0 0 0 0 0 0
0 0 0 0 0 0 0 0 0 0 0 0 0 0 0 0 0 0 0 0 0 0 0 0 0 0 0 0 0 0 0 0 0 0 0 0 0 0 0 0 0 0 0 0
0 0 0 0 0 0 0 0 0 0 0 0 0 0 0 0 0 0 0 0 0 0 0 0 0 0 0 0 0 0 0 0 0 0 0 0 0 0 0 0 0 0 0 0
0 0 0 0 0 0 0 0 0 0 0 0 0 0 0 0 0 0 0 0 0 0 0 0 0 0 0 0 0 0 0 0 0 0 0 0 0 0 0 0 0 0 0 0
0 0 0 0 0 0 0 0 0 0 0 0 0 0 0 0 0 0 0 0 0 0 0 0 0 0 0 0 0 0 0 0 0 0 0 0 0 0 0 0 0 0 0 0
Wind_Speed_500mb
3 5 3 8 25 33 21 13 14 7 20 21 14 18 30 33 34 24 27 22 22 23 23 27 22 15 11 6 5 11 13 13 13 20 25 27 24 22 24 26 28 32 40 42
2 6 6 5 8 27 14 5 16 18 29 26 40 28 35 37 32 37 29 27 24 22 26 33 28 21 17 11 10 14 16 14 18 25 31 31 35 33 27 30 31 31 30 31
7 2 3 16 20 30 13 13 15 15 28 10 11 13 24 37 35 37 31 23 23 27 24 37 33 27 22 18 16 18 18 19 19 28 35 35 36 37 36 35 34 37 39 33
6 5 20 1 2 31 24 9 32 17 20 18 19 21 41 42 42 34 22 16 19 25 31 45 40 36 30 24 22 22 22 21 22 26 33 36 34 37 38 40 40 40 38 35
9 13 12 3 11 20 22 32 38 39 41 29 16 18 26 13 13 8 18 15 24 23 40 49 43 39 35 30 26 26 25 24 23 24 29 35 32 34 35 35 35 33 32 28
8 12 23 7 17 31 11 15 21 45 26 15 14 6 3 17 8 5 12 14 22 33 49 47 44 41 37 33 30 29 28 27 26 25 25 26 30 29 27 25 24 21 17 14
18 20 11 9 16 33 18 11 17 36 25 26 15 4 10 12 11 4 5 20 25 39 47 45 42 41 38 35 32 31 30 28 26 26 26 25 24 23 22 20 17 15 13 11
10 19 42 19 20 23 14 12 28 33 38 41 19 15 7 7 6 5 6 22 29 41 46 45 41 38 38 36 34 31 30 29 27 25 24 23 23 21 22 22 19 15 12 9
26 13 10 79 41 77 30 40 40 42 40 40 30 21 14 9 8 9 12 22 30 37 41 44 42 38 37 39 35 32 31 29 29 26 24 23 22 20 19 17 15 12 9 8
9 11 15 57 48 56 42 41 41 35 42 43 34 28 20 13 7 12 15 27 32 39 40 40 42 41 38 36 34 32 31 30 28 26 24 23 21 20 18 16 14 11 9 8
14 1 6 26 64 54 49 38 45 40 39 40 32 32 27 18 12 12 15 28 32 35 37 39 39 41 42 40 37 34 32 29 28 27 25 23 21 18 16 14 13 12 11 12
23 30 21 34 80 79 53 53 51 45 41 47 38 37 33 23 16 13 15 23 33 37 37 38 40 41 42 41 39 37 34 31 29 27 25 23 21 19 15 12 11 9 9 8
21 37 76 49 75 75 72 73 62 52 48 47 51 43 33 26 21 18 20 24 31 33 37 37 38 41 41 38 36 37 35 30 29 28 26 24 22 21 19 17 14 12 10 11
58 51 41 59 47 63 78 72 58 53 47 45 48 46 41 30 28 26 29 28 32 33 36 36 38 43 44 43 39 39 34 31 30 28 27 27 26 26 26 24 22 18 17 16
65 59 39 61 67 50 50 51 57 56 56 60 59 53 51 38 36 35 37 34 34 35 34 33 34 37 41 43 43 42 39 36 32 29 28 28 28 26 23 20 21 22 18 16
66 59 42 48 64 65 59 57 54 55 54 57 53 53 48 45 41 42 40 37 33 33 31 32 32 31 33 36 38 39 39 40 39 37 35 31 28 27 26 24 22 21 20 20
54 36 45 38 48 57 61 57 56 56 55 52 52 51 50 47 43 45 43 39 34 30 30 30 31 30 29 31 35 37 39 39 38 36 35 33 31 28 24 20 18 19 19 19
52 67 72 70 62 55 55 54 57 58 57 55 54 54 52 48 47 46 43 39 36 33 29 27 25 25 26 26 29 32 33 33 34 33 33 30 25 21 19 18 16 15 17 17
36 28 31 47 44 51 54 57 54 53 55 55 57 56 53 48 44 41 38 36 32 30 28 26 24 23 22 23 24 26 29 30 32 32 32 30 29 28 24 22 22 24 19 13
32 32 33 39 45 51 55 54 55 55 54 52 51 50 47 44 43 41 38 34 31 26 25 25 25 23 22 23 24 26 28 32 35 38 38 36 31 28 28 28 25 22 18 15
30 30 33 40 44 51 52 54 54 54 55 52 47 46 45 46 43 39 36 35 35 32 30 28 25 24 25 24 24 24 27 31 35 37 38 35 34 31 28 26 25 23 23 23
36 38 40 42 45 51 50 52 53 55 52 47 45 43 45 45 43 39 34 27 30 31 29 27 26 26 27 28 28 30 32 34 36 38 39 37 35 34 33 31 30 32 30 29
36 38 43 48 53 53 52 48 48 45 48 47 46 47 44 44 40 33 31 28 25 24 21 22 23 23 22 24 26 28 30 33 36 39 39 38 36 33 33 33 34 32 32 31
37 41 45 46 46 50 53 52 49 48 47 49 45 41 36 35 35 31 26 29 26 27 25 24 25 26 27 27 28 30 32 34 35 36 37 37 38 39 38 38 37 36 34 33
38 42 45 48 50 51 49 50 51 50 49 48 45 40 37 37 29 35 33 32 30 27 27 30 30 31 30 31 33 35 36 37 39 40 41 41 42 42 41 40 38 36 34 32
37 40 41 40 42 45 46 48 47 47 46 48 46 42 38 34 37 37 38 36 37 36 36 40 38 37 38 38 38 41 42 43 42 43 43 44 43 43 41 40 38 35 32 32
35 36 39 40 40 41 44 46 48 51 48 47 48 46 44 45 44 45 46 46 44 43 43 45 42 41 43 44 43 42 44 45 43 43 42 42 40 38 36 35 34 34 34 34
Wind_Direction_500mb
356 337 265 184 172 177 195 189 187 228 219 255 237 250 269 287 291 283 292 280 274 236 227 209 206 188 177 168 113 100 89 59 83 115 119 117 102 91 99 84 87 98 107 125
166 341 5 268 187 191 206 256 287 275 275 242 265 263 274 277 281 291 291 285 262 231 219 201 195 179 164 163 135 123 104 87 100 120 121 115 110 105 110 100 91 94 127 125
217 3 8 265 198 188 187 207 193 209 242 180 236 237 264 280 289 291 290 283 255 222 217 190 183 172 160 157 147 132 121 104 104 125 126 117 114 119 122 114 108 104 105 114
134 166 228 275 224 189 195 215 212 271 258 233 251 271 285 284 279 283 282 268 215 202 191 177 175 169 165 157 151 138 129 121 113 125 135 120 116 123 127 128 128 123 120 119
185 202 304 183 189 164 181 246 209 222 249 260 257 294 276 251 185 234 291 265 186 185 179 174 172 170 165 160 153 147 140 131 122 125 137 138 131 126 124 127 126 125 124 122
154 218 231 183 188 172 154 258 191 198 227 185 154 207 159 190 200 292 312 201 185 170 170 174 171 170 169 164 155 150 146 141 135 127 128 137 156 147 141 135 132 126 126 135
213 239 271 241 150 155 168 243 171 190 192 169 183 195 150 232 253 221 259 191 180 171 171 172 172 171 170 169 160 156 153 150 146 142 138 135 137 146 154 158 162 159 157 161
207 223 244 140 124 182 196 171 163 171 176 185 174 164 163 207 172 124 190 193 179 175 173 173 174 173 172 168 171 165 160 157 156 155 153 151 148 144 141 141 142 136 129 124
197 224 121 168 180 199 183 168 175 170 175 181 175 173 170 181 193 181 160 189 179 179 182 177 174 174 172 175 174 172 170 168 166 164 163 163 164 165 166 168 171 174 180 178
131 191 181 191 198 201 186 184 177 176 174 177 175 174 174 175 161 172 165 186 186 179 182 183 180 174 170 183 179 178 177 176 176 176 175 175 176 176 177 181 187 192 197 195
251 344 74 206 207 205 202 194 180 175 185 184 185 185 186 180 166 179 169 181 189 188 184 179 181 180 183 183 186 186 184 183 181 182 183 183 184 188 190 192 197 203 210 215
224 164 183 199 204 209 203 201 196 196 196 198 198 194 193 191 187 191 178 169 186 185 183 187 181 185 191 191 189 191 194 192 189 189 189 188 186 184 185 191 193 199 214 233
220 219 218 217 208 210 215 215 211 213 211 202 193 192 192 195 202 202 194 170 190 188 187 187 191 187 193 198 201 200 197 198 199 201 201 201 201 197 199 204 212 224 242 254
217 214 208 208 211 215 218 217 209 209 210 205 197 202 209 217 217 215 213 188 189 194 196 200 201 196 194 194 198 204 201 204 208 209 209 212 214 213 214 212 214 216 224 242
215 212 220 215 212 205 201 202 205 208 211 211 210 211 218 228 219 211 209 198 191 193 194 194 198 202 200 198 197 201 200 205 212 215 218 219 221 224 226 236 251 249 236 236
220 216 212 212 211 207 199 196 201 201 206 208 208 209 210 209 203 199 196 189 186 184 188 193 203 204 203 204 203 201 205 206 209 213 219 222 228 228 227 232 238 230 230 231
190 191 201 199 198 200 203 203 205 204 199 198 195 192 189 186 184 184 181 180 180 183 181 187 193 201 205 205 208 207 207 211 215 217 215 214 214 220 226 225 219 213 212 211
217 219 214 214 203 201 202 203 201 194 190 186 181 179 177 175 180 180 179 178 179 182 185 192 196 200 203 208 209 211 218 217 215 214 216 212 211 201 202 194 195 211 206 199
204 201 201 208 204 198 193 191 189 184 177 174 174 173 173 174 178 180 177 176 179 182 184 190 196 197 197 201 204 205 204 204 200 198 198 197 189 181 199 204 195 187 191 197
179 178 180 194 198 200 191 181 174 174 173 173 175 174 173 175 179 182 180 183 183 183 182 182 184 188 192 191 188 189 188 189 191 190 188 183 186 188 187 185 182 178 175 168
172 169 172 181 183 183 185 178 177 176 173 176 178 178 177 177 176 177 178 181 178 178 179 178 182 183 184 179 174 176 179 180 181 182 179 178 179 179 177 173 171 168 162 152
157 161 164 164 168 167 167 167 169 173 171 172 172 177 178 177 176 174 175 181 172 169 167 167 171 177 177 172 172 173 174 173 174 173 173 173 176 175 172 167 161 155 148 139
149 153 156 159 163 164 161 163 164 166 168 171 174 176 176 176 170 172 178 174 170 170 169 169 170 172 169 168 171 172 171 174 175 174 175 173 170 167 162 156 151 147 142 137
151 150 151 152 156 159 160 158 161 161 167 165 169 169 175 176 174 175 175 166 162 166 166 170 173 172 165 166 167 168 168 168 168 167 164 162 158 155 152 149 147 143 140 136
157 156 157 158 160 159 162 161 161 159 163 163 165 167 169 171 182 163 161 157 156 155 160 152 152 151 152 155 157 159 159 157 156 155 152 152 150 149 148 147 144 143 141 138
160 161 161 161 164 162 164 164 167 163 166 165 163 161 161 161 157 153 146 146 146 147 144 136 137 138 139 141 147 147 146 145 146 146 146 147 147 146 146 146 144 142 138 134
167 169 168 165 167 166 164 163 166 159 160 161 157 149 150 148 145 142 143 143 139 138 135 134 134 134 134 136 139 139 139 140 141 142 143 144 145 144 142 141 140 138 136 133
Wind_Speed_850mb
3 5 3 8 25 33 21 13 14 7 20 21 14 18 30 33 34 24 27 22 22 23 23 27 22 15 11 6 5 11 13 13 13 20 25 27 24 22 24 26 28 32 40 42
2 6 6 5 8 27 14 5 16 18 29 26 40 28 35 37 32 37 29 27 24 22 26 33 28 21 17 11 10 14 16 14 18 25 31 31 35 33 27 30 31 31 30 31
7 2 3 16 20 30 13 13 15 15 28 10 11 13 24 37 35 37 31 23 23 27 24 37 33 27 22 18 16 18 18 19 19 28 35 35 36 37 36 35 34 37 39 33
6 5 20 1 2 31 24 9 32 17 20 18 19 21 41 42 42 34 22 16 19 25 31 45 40 36 30 24 22 22 22 21 22 26 33 36 34 37 38 40 40 40 38 35
9 13 12 3 11 20 22 32 38 39 41 29 16 18 26 13 13 8 18 15 24 23 40 49 43 39 35 30 26 26 25 24 23 24 29 35 32 34 35 35 35 33 32 28
8 12 23 7 17 31 11 15 21 45 26 15 14 6 3 17 8 5 12 14 22 33 49 47 44 41 37 33 30 29 28 27 26 25 25 26 30 29 27 25 24 21 17 14
18 20 11 9 16 33 18 11 17 36 25 26 15 4 10 12 11 4 5 20 25 39 47 45 42 41 38 35 32 31 30 28 26 26 26 25 24 23 22 20 17 15 13 11
10 19 42 19 20 23 14 12 28 33 38 41 19 15 7 7 6 5 6 22 29 41 46 45 41 38 38 36 34 31 30 29 27 25 24 23 23 21 22 22 19 15 12 9
26 13 10 79 41 77 30 40 40 42 40 40 30 21 14 9 8 9 12 22 30 37 41 44 42 38 37 39 35 32 31 29 29 26 24 23 22 20 19 17 15 12 9 8
9 11 15 57 48 56 42 41 41 35 42 43 34 28 20 13 7 12 15 27 32 39 40 40 42 41 38 36 34 32 31 30 28 26 24 23 21 20 18 16 14 11 9 8
14 1 6 26 64 54 49 38 45 40 39 40 32 32 27 18 12 12 15 28 32 35 37 39 39 41 42 40 37 34 32 29 28 27 25 23 21 18 16 14 13 12 11 12
23 30 21 34 80 79 53 53 51 45 41 47 38 37 33 23 16 13 15 23 33 37 37 38 40 41 42 41 39 37 34 31 29 27 25 23 21 19 15 12 11 9 9 8
21 37 76 49 75 75 72 73 62 52 48 47 51 43 33 26 21 18 20 24 31 33 37 37 38 41 41 38 36 37 35 30 29 28 26 24 22 21 19 17 14 12 10 11
58 51 41 59 47 63 78 72 58 53 47 45 48 46 41 30 28 26 29 28 32 33 36 36 38 43 44 43 39 39 34 31 30 28 27 27 26 26 26 24 22 18 17 16
65 59 39 61 67 50 50 51 57 56 56 60 59 53 51 38 36 35 37 34 34 35 34 33 34 37 41 43 43 42 39 36 32 29 28 28 28 26 23 20 21 22 18 16
66 59 42 48 64 65 59 57 54 55 54 57 53 53 48 45 41 42 40 37 33 33 31 32 32 31 33 36 38 39 39 40 39 37 35 31 28 27 26 24 22 21 20 20
54 36 45 38 48 57 61 57 56 56 55 52 52 51 50 47 43 45 43 39 34 30 30 30 31 30 29 31 35 37 39 39 38 36 35 33 31 28 24 20 18 19 19 19
52 67 72 70 62 55 55 54 57 58 57 55 54 54 52 48 47 46 43 39 36 33 29 27 25 25 26 26 29 32 33 33 34 33 33 30 25 21 19 18 16 15 17 17
36 28 31 47 44 51 54 57 54 53 55 55 57 56 53 48 44 41 38 36 32 30 28 26 24 23 22 23 24 26 29 30 32 32 32 30 29 28 24 22 22 24 19 13
32 32 33 39 45 51 55 54 55 55 54 52 51 50 47 44 43 41 38 34 31 26 25 25 25 23 22 23 24 26 28 32 35 38 38 36 31 28 28 28 25 22 18 15
30 30 33 40 44 51 52 54 54 54 55 52 47 46 45 46 43 39 36 35 35 32 30 28 25 24 25 24 24 24 27 31 35 37 38 35 34 31 28 26 25 23 23 23
36 38 40 42 45 51 50 52 53 55 52 47 45 43 45 45 43 39 34 27 30 31 29 27 26 26 27 28 28 30 32 34 36 38 39 37 35 34 33 31 30 32 30 29
36 38 43 48 53 53 52 48 48 45 48 47 46 47 44 44 40 33 31 28 25 24 21 22 23 23 22 24 26 28 30 33 36 39 39 38 36 33 33 33 34 32 32 31
37 41 45 46 46 50 53 52 49 48 47 49 45 41 36 35 35 31 26 29 26 27 25 24 25 26 27 27 28 30 32 34 35 36 37 37 38 39 38 38 37 36 34 33
38 42 45 48 50 51 49 50 51 50 49 48 45 40 37 37 29 35 33 32 30 27 27 30 30 31 30 31 33 35 36 37 39 40 41 41 42 42 41 40 38 36 34 32
37 40 41 40 42 45 46 48 47 47 46 48 46 42 38 34 37 37 38 36 37 36 36 40 38 37 38 38 38 41 42 43 42 43 43 44 43 43 41 40 38 35 32 32
35 36 39 40 40 41 44 46 48 51 48 47 48 46 44 45 44 45 46 46 44 43 43 45 42 41 43 44 43 42 44 45 43 43 42 42 40 38 36 35 34 34 34 34
Wind_Direction_850mb
356 337 265 184 172 177 195 189 187 228 219 255 237 250 269 287 291 283 292 280 274 236 227 209 206 188 177 168 113 100 89 59 83 115 119 117 102 91 99 84 87 98 107 125
166 341 5 268 187 191 206 256 287 275 275 242 265 263 274 277 281 291 291 285 262 231 219 201 195 179 164 163 135 123 104 87 100 120 121 115 110 105 110 100 91 94 127 125
217 3 8 265 198 188 187 207 193 209 242 180 236 237 264 280 289 291 290 283 255 222 217 190 183 172 160 157 147 132 121 104 104 125 126 117 114 119 122 114 108 104 105 114
134 166 228 275 224 189 195 215 212 271 258 233 251 271 285 284 279 283 282 268 215 202 191 177 175 169 165 157 151 138 129 121 113 125 135 120 116 123 127 128 128 123 120 119
185 202 304 183 189 164 181 246 209 222 249 260 257 294 276 251 185 234 291 265 186 185 179 174 172 170 165 160 153 147 140 131 122 125 137 138 131 126 124 127 126 125 124 122
154 218 231 183 188 172 154 258 191 198 227 185 154 207 159 190 200 292 312 201 185 170 170 174 171 170 169 164 155 150 146 141 135 127 128 137 156 147 141 135 132 126 126 135
213 239 271 241 150 155 168 243 171 190 192 169 183 195 150 232 253 221 259 191 180 171 171 172 172 171 170 169 160 156 153 150 146 142 138 135 137 146 154 158 162 159 157 161
207 223 244 140 124 182 196 171 163 171 176 185 174 164 163 207 172 124 190 193 179 175 173 173 174 173 172 168 171 165 160 157 156 155 153 151 148 144 141 141 142 136 129 124
197 224 121 168 180 199 183 168 175 170 175 181 175 173 170 181 193 181 160 189 179 179 182 177 174 174 172 175 174 172 170 168 166 164 163 163 164 165 166 168 171 174 180 178
131 191 181 191 198 201 186 184 177 176 174 177 175 174 174 175 161 172 165 186 186 179 182 183 180 174 170 183 179 178 177 176 176 176 175 175 176 176 177 181 187 192 197 195
251 344 74 206 207 205 202 194 180 175 185 184 185 185 186 180 166 179 169 181 189 188 184 179 181 180 183 183 186 186 184 183 181 182 183 183 184 188 190 192 197 203 210 215
224 164 183 199 204 209 203 201 196 196 196 198 198 194 193 191 187 191 178 169 186 185 183 187 181 185 191 191 189 191 194 192 189 189 189 188 186 184 185 191 193 199 214 233
220 219 218 217 208 210 215 215 211 213 211 202 193 192 192 195 202 202 194 170 190 188 187 187 191 187 193 198 201 200 197 198 199 201 201 201 201 197 199 204 212 224 242 254
217 214 208 208 211 215 218 217 209 209 210 205 197 202 209 217 217 215 213 188 189 194 196 200 201 196 194 194 198 204 201 204 208 209 209 212 214 213 214 212 214 216 224 242
215 212 220 215 212 205 201 202 205 208 211 211 210 211 218 228 219 211 209 198 191 193 194 194 198 202 200 198 197 201 200 205 212 215 218 219 221 224 226 236 251 249 236 236
220 216 212 212 211 207 199 196 201 201 206 208 208 209 210 209 203 199 196 189 186 184 188 193 203 204 203 204 203 201 205 206 209 213 219 222 228 228 227 232 238 230 230 231
190 191 201 199 198 200 203 203 205 204 199 198 195 192 189 186 184 184 181 180 180 183 181 187 193 201 205 205 208 207 207 211 215 217 215 214 214 220 226 225 219 213 212 211
217 219 214 214 203 201 202 203 201 194 190 186 181 179 177 175 180 180 179 178 179 182 185 192 196 200 203 208 209 211 218 217 215 214 216 212 211 201 202 194 195 211 206 199
204 201 201 208 204 198 193 191 189 184 177 174 174 173 173 174 178 180 177 176 179 182 184 190 196 197 197 201 204 205 204 204 200 198 198 197 189 181 199 204 195 187 191 197
179 178 180 194 198 200 191 181 174 174 173 173 175 174 173 175 179 182 180 183 183 183 182 182 184 188 192 191 188 189 188 189 191 190 188 183 186 188 187 185 182 178 175 168
172 169 172 181 183 183 185 178 177 176 173 176 178 178 177 177 176 177 178 181 178 178 179 178 182 183 184 179 174 176 179 180 181 182 179 178 179 179 177 173 171 168 162 152
157 161 164 164 168 167 167 167 169 173 171 172 172 177 178 177 176 174 175 181 172 169 167 167 171 177 177 172 172 173 174 173 174 173 173 173 176 175 172 167 161 155 148 139
149 153 156 159 163 164 161 163 164 166 168 171 174 176 176 176 170 172 178 174 170 170 169 169 170 172 169 168 171 172 171 174 175 174 175 173 170 167 162 156 151 147 142 137
151 150 151 152 156 159 160 158 161 161 167 165 169 169 175 176 174 175 175 166 162 166 166 170 173 172 165 166 167 168 168 168 168 167 164 162 158 155 152 149 147 143 140 136
157 156 157 158 160 159 162 161 161 159 163 163 165 167 169 171 182 163 161 157 156 155 160 152 152 151 152 155 157 159 159 157 156 155 152 152 150 149 148 147 144 143 141 138
160 161 161 161 164 162 164 164 167 163 166 165 163 161 161 161 157 153 146 146 146 147 144 136 137 138 139 141 147 147 146 145 146 146 146 147 147 146 146 146 144 142 138 134
167 169 168 165 167 166 164 163 166 159 160 161 157 149 150 148 145 142 143 143 139 138 135 134 134 134 134 136 139 139 139 140 141 142 143 144 145 144 142 141 140 138 136 133